Home > Weather > Manizales > Past weeks

Flag for Colombia Weather for the Past 2 Weeks in Manizales, Colombia

Now
81 °F

Scattered clouds.


Feels Like: 83 °F
Forecast: 56 / 74 °F
Wind: 3 mph from South

Location: Pereira / Matecana

Current Time: May 5, 2016 at 1:47:44 PM

Latest Report: May 5, 2016 at 1:00 PM


Visibility: N/A

Pressure: 30.03 "Hg (23.54 "Hg at 2139m altitude)

Humidity: 66%

Dew Point: 68 °F

Location of ManizalesLocation

Historic Weather in Manizales — Graph

°F

Manizales Temperature Yesterday

Maximum temperature yesterday: 81 °F (at 2:00 PM)
Minimum temperature yesterday: 66 °F (at 7:00 AM)
Average temperature yesterday: 73 °F

High & Low Weather Summary for the Past Weeks

 TemperatureHumidityPressure
High88 °F (Apr 21, 4:00 PM)100% (Apr 24, 9:00 AM)30.18 "Hg (Apr 24, 9:00 AM)
Low64 °F (Apr 25, 6:00 AM)49% (Apr 21, 4:00 PM)29.88 "Hg (Apr 20, 4:00 PM)
Average72 °F81%30.05 "Hg
* Reported Apr 20 12:00 Noon — May 5 12:00 Noon, Manizales, Weather by CustomWeather, © 2016

Note: Actual official high and low records may vary slightly from our data, if they occured in-between our weather recording intervals... More about our weather records

Advertising

Manizales Weather History for the Previous 24 Hours

Scroll right to see more
 ConditionsComfort  
Time TempWeatherWind HumidityBarometerVisibility
12:00 PM
Thu, May 5
84 °FScattered clouds.6 mph58%30.06 "HgN/A
11:00 AM81 °FPassing clouds.6 mph66%30.08 "HgN/A
10:00 AM79 °FPassing clouds.5 mph65%30.10 "HgN/A
9:00 AM75 °FScattered clouds.6 mph74%30.09 "HgN/A
8:00 AM72 °FScattered clouds.5 mph78%30.09 "HgN/A
7:00 AM66 °FScattered clouds.6 mph88%30.07 "HgN/A
6:00 AM68 °FScattered clouds.7 mph88%30.07 "HgN/A
5:00 AM66 °FPassing clouds.5 mph88%30.05 "HgN/A
12:00 AM70 °FPassing clouds.9 mph78%30.06 "HgN/A
11:00 PM
Wed, May 4
72 °FPassing clouds.7 mph78%30.08 "HgN/A
10:00 PM72 °FPassing clouds.10 mph78%30.07 "HgN/A
9:00 PM72 °FPassing clouds.9 mph83%30.05 "HgN/A
8:00 PM73 °FPassing clouds.7 mph78%30.03 "HgN/A
7:00 PM75 °FPassing clouds.3 mph74%30.00 "HgN/A
6:00 PM79 °FScattered clouds.3 mph65%29.98 "HgN/A
5:00 PM81 °FScattered clouds.7 mph62%29.97 "HgN/A
4:00 PM77 °FPartly sunny.5 mph69%29.98 "HgN/A
3:00 PM77 °FScattered clouds.8 mph69%30.01 "HgN/A
2:00 PM81 °FScattered showers. Broken clouds.5 mph66%30.04 "HgN/A
1:00 PM79 °FScattered clouds.6 mph70%30.07 "HgN/A
Weather by CustomWeather, © 2016

See weather overviewHow to use our weather pages